[[{"header":{"parameterUnit":"m.s-1","parameterCategory":1,"la1":30.2991,"la2":30.254,"lo1":-89.0895,"lo2":-89.0444,"dy":0.0017,"dx":0.0017,"nx":28,"ny":28,"refTime":"2024-06-10T21:00:00:Z","depth":0,"parameterNumber":2,"parameterNumberName":"U-component_of_WINDS"},"data":[0,0,0,0,0,0,0,0,0,0,0,0,0,0,0,0,0,0,0,0,0,0,0,0,0,0,0,0,0,0,0,0,0,0,0,0,0,0,0,0,0,0,0,0,0,0,0,0,0,0,0,0,0,0,0,0,0,0,-2.7414,-2.7413,0,-2.7314,-2.7313,-2.7312,-2.7161,-2.7158,-2.7156,-2.7153,-2.7054,-2.7054,-2.7054,0,0,0,0,0,0,0,0,0,0,0,0,0,-2.7475,-2.7475,-2.7414,-2.7413,-2.7412,-2.7315,-2.7313,-2.7312,-2.7161,-2.7158,-2.7155,-2.7152,-2.7054,-2.7054,-2.7054,0,0,0,0,0,0,0,0,0,0,0,0,0,-2.7419,-2.7474,-2.7415,-2.7325,-2.7316,-2.7315,-2.7313,-2.7311,-2.7162,-2.7158,-2.7154,-2.715,-2.7054,-2.7054,-2.7054,-2.7133,0,0,-2.7053,-2.7053,0,0,0,0,0,0,0,0,-2.7423,-2.7417,-2.7339,-2.7331,-2.7321,-2.7246,-2.7298,-2.7252,-2.7163,-2.7221,-2.7153,-2.7148,-2.7121,-2.7115,-2.7105,-2.7128,-2.7124,-2.7053,-2.7053,-2.7053,-2.7053,0,0,0,0,0,0,0,-2.7427,-2.7421,-2.7375,-2.7338,-2.7327,-2.729,-2.7277,-2.7289,-2.7195,-2.7215,-2.7204,-2.7194,-2.7115,-2.7106,-2.7102,-2.7123,-2.7053,-2.7053,-2.7053,-2.7053,-2.7201,-2.7205,0,0,0,0,0,0,-2.7444,-2.7425,-2.7378,-2.7372,-2.7363,-2.7292,-2.7278,-2.7274,-2.7194,-2.7178,-2.7198,-2.7188,-2.7108,-2.7102,-2.7098,-2.7183,-2.7053,-2.7053,-2.7052,-2.7197,-2.7202,-2.7206,0,0,0,0,0,0,-2.7446,-2.7441,-2.7382,-2.7395,-2.7385,-2.7295,-2.7292,-2.7274,-2.7265,-2.7181,-2.7164,-2.7205,-2.7105,-2.7098,-2.7124,-2.7177,-2.7052,-2.7052,-2.7192,-2.7199,-2.7204,-2.7355,0,0,0,0,0,0,-2.7448,-2.7443,-2.7472,-2.7397,-2.7385,-2.7411,-2.7295,-2.7275,-2.7264,-2.725,-2.7183,-2.7169,-2.7101,-2.7125,-2.7124,-2.7175,-2.7052,-2.7187,-2.7195,-2.7202,-2.7345,-2.7366,-2.7383,0,0,0,0,0,-2.7451,-2.752,-2.7474,-2.7469,-2.742,-2.7414,-2.7407,-2.7327,-2.7269,-2.7298,-2.7243,-2.7171,-2.7172,-2.7129,-2.7127,-2.7178,-2.7183,-2.7193,-2.7202,-2.7337,-2.7362,-2.7383,0,0,0,0,0,0,-2.7605,-2.7509,-2.7457,-2.7504,-2.7468,-2.7388,-2.7422,-2.7357,-2.7338,-2.7325,-2.7228,-2.7214,-2.7252,-2.7217,-2.7172,-2.7249,-2.7166,-2.7175,-2.727,-2.7293,-2.7312,-2.7319,-2.7052,0,0,0,0,0,-2.7645,-2.7648,-2.7563,-2.7613,-2.7597,-2.7513,-2.7508,-2.7449,-2.7408,-2.7393,-2.734,-2.7304,-2.7295,-2.7292,-2.728,-2.7339,-2.7321,-2.7373,-2.7392,-2.7408,-2.7417,-2.7442,-2.7464,-2.7237,-2.7237,-2.7236,0,0,-2.7727,-2.7674,-2.7682,-2.7642,-2.7608,-2.7612,-2.7502,-2.7512,-2.7514,-2.7395,-2.7415,-2.7375,-2.7328,-2.737,-2.7386,-2.7343,-2.7476,-2.742,-2.7434,-2.7433,-2.7454,-2.7476,-2.7495,-2.7243,-2.7242,-2.7241,0,0,-2.7878,-2.7839,-2.7874,-2.7841,-2.7789,-2.7732,-2.7741,-2.767,-2.7639,-2.7657,-2.7566,-2.7568,-2.7556,-2.7525,-2.7508,-2.7644,-2.7575,-2.7643,-2.7743,-2.7769,-2.7787,-2.7802,-2.7848,-2.7866,-2.7652,-2.7653,-2.7653,0,-2.7986,-2.7989,-2.7902,-2.7916,-2.7901,-2.779,-2.7825,-2.7797,-2.7745,-2.7736,-2.7688,-2.7669,-2.763,-2.7661,-2.7694,-2.7685,-2.769,-2.765,-2.7791,-2.7806,-2.7819,-2.7861,-2.7879,-2.7661,-2.766,-2.7659,-2.7658,0,-2.8124,-2.8128,-2.8163,-2.8112,-2.81,-2.8126,-2.8041,-2.804,-2.7981,-2.7929,-2.7948,-2.7897,-2.7871,-2.7874,-2.7819,-2.7897,-2.7871,-2.7809,-2.7724,-2.785,-2.7888,-2.7904,-2.7673,-2.767,-2.7667,-2.7665,0,0,-2.8371,-2.827,-2.8284,-2.8258,-2.8191,-2.8192,-2.8212,-2.8184,-2.8184,-2.8151,-2.8163,-2.8155,-2.8095,-2.8076,-2.8015,-2.8038,-2.8146,-2.7972,-2.7969,-2.8004,-2.8226,-2.8272,-2.8292,-2.81,-2.8103,-2.8105,-2.8229,0,-2.8508,-2.8534,-2.8454,-2.85,-2.8501,-2.8395,-2.8411,-2.8372,-2.8323,-2.8316,-2.8262,-2.8257,-2.818,-2.8167,-2.8185,-2.8129,-2.8189,-2.8119,-2.8109,-2.811,-2.8123,-2.8313,-2.8362,-2.8482,-2.8243,-2.8246,-2.8248,0,-2.8671,-2.8644,-2.869,-2.8617,-2.8614,-2.8631,-2.8597,-2.8593,-2.8545,-2.8508,-2.8485,-2.8413,-2.8426,-2.8345,-2.8359,-2.8314,-2.8305,-2.8277,-2.8279,-2.8274,-2.8186,-2.8311,-2.8518,-2.8536,-2.8271,-2.8269,-2.8268,0,-2.8844,-2.8819,-2.8842,-2.8824,-2.8741,-2.8754,-2.872,-2.8668,-2.8656,-2.8627,-2.8617,-2.8592,-2.8577,-2.8558,-2.8481,-2.843,-2.8504,-2.8417,-2.8472,-2.8474,-2.8492,-2.8492,-2.8699,-2.849,-2.8489,-2.8489,-2.8489,0,-2.9004,-2.9036,-2.8918,-2.8933,-2.8965,-2.8872,-2.8906,-2.8861,-2.8815,-2.8818,-2.8726,-2.8731,-2.8629,-2.8622,-2.8562,-2.8582,-2.8577,-2.8546,-2.8529,-2.8553,-2.8557,-2.8545,-2.8534,-2.8494,-2.8493,-2.8492,-2.8491,0,-2.9203,-2.9126,-2.9143,-2.9062,-2.9042,-2.9069,-2.8998,-2.9008,-2.8952,-2.8957,-2.8953,-2.8866,-2.8853,-2.8774,-2.8743,-2.8702,-2.8743,-2.8711,-2.8759,-2.8748,-2.8806,-2.8801,-2.9011,-2.9033,-2.8813,-2.8815,-2.8817,0,-2.9309,-2.933,-2.925,-2.9245,-2.9214,-2.9208,-2.9194,-2.9103,-2.9092,-2.9037,-2.9053,-2.9032,-2.901,-2.8994,-2.8928,-2.8903,-2.8868,-2.8944,-2.8864,-2.8886,-2.8866,-2.8865,-2.8865,-2.8961,-2.8964,-2.8966,-2.8968,0,-2.9505,-2.9465,-2.9449,-2.9418,-2.9403,-2.9375,-2.9342,-2.9343,-2.9241,-2.9234,-2.9218,-2.9202,-2.9168,-2.9148,-2.9111,-2.9075,-2.9004,-2.8993,-2.9004,-2.9028,-2.9054,-2.9038,-2.8803,-2.8989,-2.8987,-2.8985,-2.8984,-2.8983,-2.9659,-2.9672,-2.9617,-2.96,-2.9565,-2.9534,-2.9538,-2.9482,-2.9467,-2.9432,-2.9379,-2.937,-2.9319,-2.9262,-2.9231,-2.9222,-2.9182,-2.9198,-2.9202,-2.9207,-2.9218,-2.9057,-2.9216,-2.9215,-2.9214,-2.9214,-2.9213,0,-2.9848,-2.9807,-2.9793,-2.9747,-2.9734,-2.9667,-2.9625,-2.9618,-2.9611,-2.9569,-2.9548,-2.9529,-2.9508,-2.9439,-2.941,-2.9416,-2.9382,-2.9411,-2.9409,-2.9401,-2.9258,-2.925,-2.9439,-2.9439,-2.9439,-2.9439,-2.9439,-2.9439,-2.9945,-2.9962,-2.9916,-2.9913,-2.9871,-2.9861,-2.9842,-2.9813,-2.9778,-2.976,-2.9741,-2.9696,-2.9642,-2.9608,-2.9585,-2.9565,-2.9558,-2.9598,-2.9567,-2.9434,-2.9412,-2.9391,-2.9383,-2.9597,-2.9598,-2.9711,-2.9712,-2.9713]},{"header":{"parameterUnit":"m.s-1","parameterCategory":1,"la1":30.2991,"la2":30.254,"lo1":-89.0895,"lo2":-89.0444,"dy":0.0017,"dx":0.0017,"nx":28,"ny":28,"refTime":"2024-06-10T21:00:00:Z","depth":0,"parameterNumber":3,"parameterNumberName":"V-component_of_WINDS"},"data":[0,0,0,0,0,0,0,0,0,0,0,0,0,0,0,0,0,0,0,0,0,0,0,0,0,0,0,0,0,0,0,0,0,0,0,0,0,0,0,0,0,0,0,0,0,0,0,0,0,0,0,0,0,0,0,0,0,0,-3.7271,-3.7272,0,-3.7314,-3.7315,-3.7315,-3.728,-3.7278,-3.7277,-3.7275,-3.7316,-3.7318,-3.7321,0,0,0,0,0,0,0,0,0,0,0,0,0,-3.7154,-3.7157,-3.7271,-3.7272,-3.7272,-3.7314,-3.7315,-3.7315,-3.728,-3.7278,-3.7276,-3.7274,-3.7315,-3.7318,-3.7321,0,0,0,0,0,0,0,0,0,0,0,0,0,-3.7202,-3.7157,-3.7271,-3.726,-3.7259,-3.7314,-3.7315,-3.7315,-3.728,-3.7278,-3.7276,-3.7274,-3.7314,-3.7318,-3.7321,-3.7389,0,0,-3.7333,-3.7334,0,0,0,0,0,0,0,0,-3.7199,-3.7206,-3.7261,-3.7261,-3.726,-3.7289,-3.7288,-3.734,-3.7281,-3.7272,-3.7275,-3.7273,-3.7309,-3.7313,-3.7325,-3.7391,-3.7392,-3.7333,-3.7335,-3.7337,-3.7338,0,0,0,0,0,0,0,-3.7196,-3.7204,-3.7288,-3.7262,-3.7261,-3.7251,-3.7255,-3.7298,-3.7302,-3.7273,-3.727,-3.7276,-3.7308,-3.7322,-3.7326,-3.7393,-3.7333,-3.7336,-3.7338,-3.734,-3.7512,-3.7515,0,0,0,0,0,0,-3.7194,-3.7202,-3.7287,-3.7289,-3.7224,-3.7255,-3.726,-3.7282,-3.7302,-3.7303,-3.7278,-3.7274,-3.7317,-3.7322,-3.7327,-3.7405,-3.7337,-3.734,-3.7342,-3.751,-3.7513,-3.7516,0,0,0,0,0,0,-3.7192,-3.7202,-3.7285,-3.7245,-3.7255,-3.7259,-3.7285,-3.7284,-3.7298,-3.7306,-3.7306,-3.7292,-3.7315,-3.7322,-3.7373,-3.7406,-3.7342,-3.7345,-3.7507,-3.7511,-3.7514,-3.7563,0,0,0,0,0,0,-3.7189,-3.7202,-3.7228,-3.7246,-3.7257,-3.7332,-3.7287,-3.7286,-3.7305,-3.73,-3.7319,-3.7319,-3.7314,-3.7368,-3.7377,-3.741,-3.7348,-3.7504,-3.7509,-3.7513,-3.7559,-3.7568,-3.7576,0,0,0,0,0,-3.7185,-3.724,-3.723,-3.724,-3.7291,-3.7334,-3.734,-3.7333,-3.7308,-3.7334,-3.7338,-3.7319,-3.7402,-3.7374,-3.7383,-3.7418,-3.7502,-3.7508,-3.7513,-3.7555,-3.7566,-3.7576,0,0,0,0,0,0,-3.7226,-3.7242,-3.7231,-3.7294,-3.7313,-3.7328,-3.736,-3.7346,-3.7371,-3.7366,-3.7356,-3.736,-3.7414,-3.7421,-3.739,-3.7483,-3.7448,-3.7455,-3.7476,-3.7487,-3.7496,-3.7492,-3.7351,0,0,0,0,0,-3.7243,-3.7278,-3.729,-3.7344,-3.7354,-3.7356,-3.7374,-3.7368,-3.7386,-3.7393,-3.7402,-3.7419,-3.7449,-3.7469,-3.7497,-3.756,-3.7562,-3.7589,-3.7598,-3.7605,-3.7611,-3.7643,-3.7654,-3.7533,-3.7533,-3.7533,0,0,-3.7277,-3.729,-3.7313,-3.7353,-3.7366,-3.7401,-3.7362,-3.7401,-3.7426,-3.7399,-3.7447,-3.7454,-3.7473,-3.753,-3.7555,-3.7538,-3.7645,-3.7612,-3.7617,-3.7619,-3.7649,-3.7661,-3.7671,-3.7537,-3.7536,-3.7535,0,0,-3.7357,-3.7372,-3.7418,-3.7432,-3.7453,-3.7454,-3.7465,-3.7482,-3.7485,-3.7534,-3.7513,-3.7542,-3.7594,-3.7608,-3.7622,-3.7705,-3.7687,-3.7715,-3.776,-3.7791,-3.78,-3.7808,-3.7836,-3.7847,-3.7721,-3.7721,-3.7721,0,-3.7397,-3.745,-3.7443,-3.7483,-3.75,-3.7477,-3.7523,-3.7537,-3.7565,-3.7577,-3.7557,-3.7621,-3.7632,-3.7691,-3.7711,-3.7724,-3.7734,-3.7712,-3.78,-3.7808,-3.7816,-3.7842,-3.7853,-3.7724,-3.7724,-3.7724,-3.7723,0,-3.7496,-3.7533,-3.7567,-3.7596,-3.7617,-3.7659,-3.7657,-3.7679,-3.7671,-3.7673,-3.7721,-3.7734,-3.7763,-3.7777,-3.7769,-3.7834,-3.7822,-3.7801,-3.7765,-3.783,-3.7855,-3.7865,-3.7729,-3.7727,-3.7727,-3.7726,0,0,-3.7604,-3.7628,-3.764,-3.7652,-3.7673,-3.77,-3.7741,-3.777,-3.7788,-3.7808,-3.784,-3.7885,-3.7865,-3.7881,-3.7874,-3.7901,-3.7964,-3.7877,-3.7877,-3.7891,-3.8034,-3.8048,-3.806,-3.7953,-3.7955,-3.7956,-3.8032,0,-3.7683,-3.7754,-3.7749,-3.7815,-3.7847,-3.7826,-3.7861,-3.7877,-3.788,-3.7906,-3.7909,-3.7939,-3.7912,-3.7921,-3.7948,-3.7951,-3.7992,-3.7946,-3.7981,-3.7982,-3.7975,-3.8073,-3.8089,-3.8159,-3.8041,-3.8043,-3.8044,0,-3.7785,-3.7809,-3.7879,-3.7894,-3.7907,-3.7939,-3.7964,-3.799,-3.8007,-3.8007,-3.8024,-3.8012,-3.805,-3.8014,-3.8066,-3.8035,-3.8049,-3.8052,-3.8055,-3.8056,-3.8016,-3.8076,-3.8182,-3.8192,-3.806,-3.8058,-3.8057,0,-3.7854,-3.7904,-3.7951,-3.7962,-3.7981,-3.8003,-3.8012,-3.8027,-3.8044,-3.8066,-3.8076,-3.8102,-3.8116,-3.8135,-3.813,-3.8105,-3.8182,-3.8147,-3.8182,-3.8182,-3.8198,-3.8197,-3.8306,-3.821,-3.821,-3.821,-3.821,0,-3.7942,-3.7985,-3.7982,-3.8011,-3.8058,-3.8051,-3.8097,-3.8103,-3.8116,-3.8144,-3.8127,-3.8154,-3.8146,-3.8173,-3.8169,-3.8211,-3.8218,-3.8217,-3.8215,-3.8218,-3.8218,-3.8226,-3.822,-3.8213,-3.8212,-3.8211,-3.8211,0,-3.8026,-3.8026,-3.8076,-3.809,-3.8094,-3.8128,-3.8138,-3.8165,-3.8166,-3.8202,-3.821,-3.8212,-3.8242,-3.8238,-3.8272,-3.8269,-3.8321,-3.8314,-3.8315,-3.8313,-3.8348,-3.8344,-3.8465,-3.8479,-3.8376,-3.8377,-3.8378,0,-3.8081,-3.8114,-3.8131,-3.8149,-3.8159,-3.8189,-3.8206,-3.82,-3.8218,-3.8239,-3.8262,-3.8291,-3.8313,-3.8361,-3.8364,-3.8389,-3.8381,-3.8422,-3.8385,-3.8386,-3.8379,-3.8377,-3.8379,-3.8429,-3.843,-3.8431,-3.8432,0,-3.8179,-3.8177,-3.8203,-3.8229,-3.825,-3.827,-3.8288,-3.8304,-3.8299,-3.832,-3.8351,-3.8368,-3.8402,-3.8429,-3.8453,-3.846,-3.8444,-3.8444,-3.8453,-3.8454,-3.8453,-3.8452,-3.8333,-3.844,-3.844,-3.8439,-3.8438,-3.8438,-3.8249,-3.8276,-3.8291,-3.832,-3.8333,-3.835,-3.8375,-3.838,-3.8405,-3.8432,-3.8427,-3.8461,-3.8475,-3.8504,-3.8514,-3.8539,-3.8524,-3.8538,-3.8541,-3.8544,-3.8547,-3.8451,-3.8544,-3.8543,-3.8543,-3.8543,-3.8543,0,-3.8343,-3.8352,-3.8379,-3.8405,-3.8427,-3.8412,-3.8431,-3.845,-3.848,-3.8495,-3.8517,-3.8551,-3.8577,-3.8583,-3.8607,-3.8626,-3.862,-3.8633,-3.863,-3.8632,-3.856,-3.8549,-3.8638,-3.8638,-3.8637,-3.8637,-3.8637,-3.8637,-3.8395,-3.8439,-3.8439,-3.8489,-3.8497,-3.8531,-3.8542,-3.8557,-3.8569,-3.8607,-3.8629,-3.8633,-3.8643,-3.8668,-3.8691,-3.8692,-3.8701,-3.8716,-3.8714,-3.8647,-3.8637,-3.8628,-3.8617,-3.8719,-3.8719,-3.8783,-3.8784,-3.8784]}]]